DW2817 Weather Reports


time (UTC)temp
F
wind
direction
speed
knots
gust
knots
rain 1hr
in
rain 24hr
in
rain mn
in
humidity
%
barometer
mb
20260506051125 41 155 0.0 1.7 0.00 0.04 0.03 78 994.6
20260506050122 41 155 0.9 1.7 0.00 0.04 0.03 78 994.7
20260506045120 41 155 0.0 1.7 0.00 0.04 0.03 77 994.6
20260506044118 41 155 0.9 1.7 0.00 0.04 0.03 78 994.8
20260506043113 40 155 0.0 1.7 0.00 0.04 0.03 78 994.7
20260506042120 41 155 0.0 1.7 0.01 0.04 0.03 78 994.7
20260506041104 41 155 0.0 1.7 0.01 0.04 0.03 78 994.9
20260506040104 41 155 0.0 0.9 0.01 0.04 0.03 77 995.0
20260506035103 41 155 0.0 0.9 0.01 0.04 0.03 77 995.1
20260506034122 40 155 0.9 2.6 0.01 0.04 0.03 77 995.4
20260506033118 40 155 0.9 2.6 0.01 0.04 0.03 78 995.4
20260506032125 40 155 0.0 2.6 0.00 0.03 0.02 78 995.5
20260506031127 40 155 0.9 2.6 0.00 0.03 0.02 78 995.5
20260506030116 40 142 0.0 2.6 0.00 0.03 0.02 78 995.6
20260506025111 40 142 0.0 2.6 0.00 0.03 0.02 79 995.7
20260506023105 41 142 0.9 2.6 0.00 0.03 0.02 79 995.9
20260506022127 41 235 0.0 2.6 0.00 0.03 0.02 79 995.8
20260506021131 41 226 0.9 2.6 0.00 0.03 0.02 79 995.9
20260506020106 41 226 0.0 1.7 0.00 0.03 0.02 79 995.8
20260506015100 41 206 0.0 1.7 0.00 0.03 0.02 79 995.9
20260506014100 41 206 0.0 1.7 0.00 0.03 0.02 79 996.1
20260506013056 42 206 0.9 3.5 0.01 0.03 0.02 78 996.2
20260506012116 42 211 2.6 3.5 0.01 0.03 0.02 78 996.5
20260506011046 42 235 0.9 2.6 0.01 0.03 0.02 78 996.6
20260506005954 42 221 0.9 1.7 0.02 0.03 0.02 79 996.9
20260506004950 42 224 0.0 0.9 0.02 0.03 0.02 79 996.9
20260506003949 42 224 0.0 1.7 0.02 0.03 0.02 79 997.0
20260506002944 42 224 0.0 1.7 0.01 0.02 0.02 78 997.0
20260506001941 42 180 0.0 1.7 0.01 0.02 0.02 79 997.2
20260506000936 42 180 0.0 1.7 0.01 0.02 0.02 79 997.1
20260505235934 42 180 0.0 0.9 0.00 0.02 0.01 79 997.2
20260505234926 42 180 0.0 0.9 0.00 0.02 0.01 79 997.4
20260505233925 42 180 0.0 1.7 0.00 0.02 0.01 79 997.7
20260505232922 42 180 0.0 1.7 0.01 0.02 0.01 79 997.7
20260505231932 42 180 0.0 0.9 0.01 0.02 0.01 79 997.7
20260505230926 42 180 0.0 1.7 0.01 0.02 0.01 80 997.7
20260505225928 42 180 0.0 1.7 0.01 0.02 0.01 80 997.5
20260505224921 42 180 0.9 3.5 0.01 0.02 0.01 79 997.8
20260505222926 42 284 0.9 2.6 0.00 0.01 0.00 80 997.9
20260505221911 42 172 0.9 2.6 0.00 0.01 0.00 80 997.9
20260505220911 43 172 0.0 1.7 0.00 0.01 0.00 80 997.9
20260505214848 43 172 1.7 4.3 0.01 0.01 0.01 80 997.9
20260505213847 43 220 1.7 4.3 0.01 0.01 0.01 80 998.1
20260505212853 43 172 1.7 1.7 0.01 0.01 0.01 80 998.1
20260505211851 44 71 0.9 3.5 0.01 0.01 0.01 80 998.2
20260505205843 45 155 1.7 3.5 0.01 0.01 0.01 79 998.5
20260505204848 45 152 0.9 2.6 0.00 0.00 0.00 78 998.4
20260505203846 46 152 0.9 2.6 0.00 0.00 0.00 77 998.1
20260505202826 46 152 0.0 1.7 0.00 0.00 0.00 76 998.0
20260505195822 46 152 0.0 1.7 0.00 0.00 0.00 75 997.9
20260505194809 46 152 0.0 3.5 0.00 0.00 0.00 75 997.9
20260505193821 47 152 0.9 3.5 0.00 0.00 0.00 75 997.8
20260505192838 47 20 0.9 3.5 0.00 0.00 0.00 74 997.7
20260505190756 47 145 0.9 2.6 0.00 0.00 0.00 73 997.7
20260505185754 48 163 1.7 4.3 0.00 0.00 0.00 71 997.7
20260505184751 48 257 0.9 4.3 0.00 0.00 0.00 69 997.5
20260505183748 48 172 1.7 3.5 0.00 0.00 0.00 69 997.3
20260505182744 49 205 1.7 4.3 0.00 0.00 0.00 68 997.3
20260505181737 49 170 1.7 4.3 0.00 0.00 0.00 68 997.2
20260505180736 49 191 1.7 5.2 0.00 0.00 0.00 67 997.2
20260505175730 50 255 2.6 5.2 0.00 0.00 0.00 66 997.2
20260505174729 50 174 2.6 6.1 0.00 0.00 0.00 65 997.2
20260505171721 51 236 3.5 8.7 0.00 0.00 0.00 64 997.2
20260505170722 51 201 3.5 8.7 0.00 0.00 0.00 64 997.2
20260505165719 51 212 3.5 7.0 0.00 0.00 0.00 63 997.2
20260505162735 52 276 2.6 7.8 0.00 0.00 0.00 62 997.2
20260505161733 52 155 3.5 7.8 0.00 0.00 0.00 62 997.2
20260505160730 53 122 1.7 5.2 0.00 0.00 0.00 60 997.1
20260505152657 54 344 1.7 5.2 0.00 0.00 0.00 60 996.7
20260505151658 53 36 0.9 4.3 0.00 0.00 0.00 62 996.7
20260505150704 53 215 1.7 5.2 0.00 0.00 0.00 60 996.7
20260505140618 53 169 3.5 7.8 0.00 0.00 0.00 61 997.0
20260505124545 56 179 7.0 13.9 0.00 0.00 0.00 60 997.7
20260505123544 56 174 6.1 16.5 0.00 0.00 0.00 57 997.5
20260505122544 54 264 8.7 16.5 0.00 0.00 0.00 58 997.5
20260505121544 54 247 7.8 15.6 0.00 0.00 0.00 57 997.7
20260505120558 53 138 5.2 11.3 0.00 0.00 0.00 59 997.7
20260505115545 54 169 3.5 11.3 0.00 0.00 0.00 57 997.8
20260505114541 54 180 1.7 6.1 0.00 0.00 0.00 62 997.8
20260505113536 53 105 2.6 6.1 0.00 0.00 0.00 64 997.7
20260505112533 52 124 3.5 8.7 0.00 0.00 0.00 62 997.8
20260505111513 52 157 3.5 8.7 0.00 0.00 0.00 61 997.9
20260505101504 50 274 5.2 12.2 0.00 0.00 0.00 63 998.0
20260505100454 50 292 4.3 11.3 0.00 0.00 0.00 66 998.1
20260505095453 50 234 2.6 11.3 0.00 0.00 0.00 64 998.0
20260505094508 50 149 0.9 4.3 0.00 0.00 0.00 67 997.9
20260505093447 49 160 2.6 4.3 0.00 0.00 0.00 68 997.9
20260505091429 50 171 1.7 8.7 0.00 0.00 0.00 70 998.0
20260505084415 50 234 3.5 7.8 0.00 0.00 0.00 70 998.0
20260505083413 50 176 3.5 7.0 0.00 0.00 0.00 68 998.0
20260505082413 50 230 3.5 7.0 0.00 0.00 0.00 69 997.9
20260505075409 49 163 3.5 7.0 0.00 0.00 0.00 69 997.8
20260505074358 49 179 4.3 7.0 0.00 0.00 0.00 70 998.0
20260505073357 49 171 2.6 5.2 0.00 0.00 0.00 70 998.0
20260505072354 49 178 3.5 6.1 0.00 0.00 0.00 72 998.1
20260505070353 49 175 1.7 4.3 0.00 0.00 0.00 72 998.4
20260505065358 49 245 1.7 4.3 0.00 0.00 0.00 70 998.5
20260505064352 48 154 0.9 2.6 0.00 0.00 0.00 72 998.4
20260505063351 48 110 0.0 1.7 0.00 0.00 0.00 74 998.4
20260505062405 48 110 0.9 4.3 0.00 0.00 0.00 71 998.5
20260505061404 48 110 1.7 4.3 0.00 0.00 0.00 70 998.4
20260505060404 48 95 0.0 0.9 0.00 0.00 0.00 69 998.4
20260505055403 48 95 0.9 3.5 0.00 0.00 0.00 71 998.5